Погода в Поселке Подсобного Хозяйства Санатория им. Цюрупы

Россия / Воронежская область     51°01′54″N   39°51′41″E
темп.,
°C
ветер,
м/с
пор.,
м/с
влажн.,
%
обл.,
%
осадки,
мм/ч
давл.,
гПа
погр.,
м
22 октября, пт
пт2200:00+12юз9185183 0.0 1010802
03:00+10юз9176138 0.0 1009656
06:00+10юз91768100 0.0 1007558
09:00+11юз81576100 0.0 1008665
12:00+15зюз91358100 0.0 10091037
15:00+17зюз7125299 0.0 10091191
18:00+14зюз612615 0.0 1011438
21:00+12зюз614605 0.0 1012362
23 октября, сб
сб2300:00+10зюз4115916 0.0 1013262
03:00+9юз4116653 0.0 1013182
06:00+10юз496355 0.0 1013195
09:00+11юз4660100 0.0 1013214
12:00+15юз6950100 0.0 1013849
15:00+16зюз7123899 0.0 10121915
18:00+14зюз61045100 0.0 1012686
21:00+10зсз495078 0.0 1014300
24 октября, вс
вс2400:00+7з49610 0.0 1015300
03:00+5зсз497542 0.0 1016352
06:00+3з36865 0.0 1017150
09:00+5зюз596685 0.0 1018374
12:00+9з684736 0.0 10181308
15:00+10з684181 0.0 10171860
18:00+7зсз5105299 0.0 1017424
21:00+6сз6874100 0.1 1018868
25 октября, пн
пн2500:00+3сз5995100 0.5 1018686
03:00+3ссз7108087 1.2 1020939
06:00+2ссз71074100 0.1 10231121
09:00+2ссз8107081 0.1 1026799
12:00+3с7857100 0.0 10271272
15:00+4с6754100 0.0 10291358
18:00+3с4756100 0.0 1031754
21:00+1с3568100 0.0 1033103
26 октября, вт
вт2600:000с22655 0.0 103422
03:00−1сз11651 0.0 103510
06:00−2з11665 0.0 103510
09:00+1юз23540 0.0 1035175
12:00+6юз34355 0.0 1034712
15:00+7юз452921 0.0 1032900
18:00+3юз344223 0.0 103249
21:00+3юз3747100 0.0 1032130